Regional Weather Roundup
Issued by NWS

Home | Current Version | Previous Version | Text Only | Print | Product List | Glossary On
Versions: 1 2 3 4 5 6 7 8 9 10 11 12 13 14 15 16 17 18 19 20 21 22 23 24 25 26 27 28 29 30 31 32 33 34 35 36 37 38 39 40 41 42 43 44 45 46 47 48 49 50
000
ASUS43 KFSD 251602
RWRSD

WEATHER ROUNDUP FOR SOUTH DAKOTA
NATIONAL WEATHER SERVICE SIOUX FALLS SD
1100 AM CDT SUN JUN 25 2017

NOTE: "FAIR" INDICATES FEW OR NO CLOUDS BELOW 12,000 FEET WITH NO
SIGNIFICANT WEATHER AND/OR OBSTRUCTIONS TO VISIBILITY.


SDZ001>005-009-010-012>017-251700-
NORTHWEST AND NORTH CENTRAL SOUTH DAKOTA

CITY           SKY/WX    TMP DP  RH WIND       PRES   REMARKS
BUFFALO          N/A     70  30  22 CALM      30.23F
FAITH            N/A     68  34  28 SW16      30.29F
MOBRIDGE       SUNNY     67  37  33 S9        30.26F
$$

SDZ012>016-024>037-041>051-057-063-072>074-251700-
SOUTHWEST AND SOUTH CENTRAL SOUTH DAKOTA

CITY           SKY/WX    TMP DP  RH WIND       PRES   REMARKS
RAPID CTY ARPT SUNNY     68  35  29 S13       30.32F
PIERRE         NOT AVBL
CUSTER         MOSUNNY   59  31  34 VRB5      30.38F
ELLSWORTH AFB  SUNNY     69  35  28 S13       30.31F
PHILIP         SUNNY     70  34  26 VRB7      30.31F
PINE RIDGE     SUNNY     68  39  34 SE7       30.34F
SPEARFISH      FAIR      66  37  34 VRB7      30.34S
WINNER         FAIR      69  34  27 N6        30.33F
$$

SDZ004>011-016>023-039-040-251700-
NORTHEAST SOUTH DAKOTA

CITY           SKY/WX    TMP DP  RH WIND       PRES   REMARKS
ABERDEEN       MOSUNNY   64  42  44 NW13      30.29F
WATERTOWN      MOSUNNY   61  43  51 NW16G23   30.28S
BROOKINGS      MOSUNNY   61  45  55 NW14G24   30.29S
SISSETON         N/A     64  44  48 NW20      30.25F
$$

SDZ017-020-022-023-036>040-048>070-251700-
SOUTHEAST SOUTH DAKOTA

CITY           SKY/WX    TMP DP  RH WIND       PRES   REMARKS
SIOUX FALLS    MOSUNNY   63  45  51 NW18G26   30.29F
HURON          SUNNY     63  42  46 NW7       30.31F
CHAMBERLAIN    SUNNY     67  38  34 NW5       30.33S
YANKTON        SUNNY     64  39  39 NW16G23   30.32F
$$

ABBREVIATIONS USED IN REMARKS
   TC - TEMPERATURE IN CELSIUS
  WCI - WIND CHILL INDEX
   HX - HEAT INDEX
  VSB - VISIBILITY





USA.gov is the U.S. government's official web portal to all federal, state and local government web resources and services.